Year,Month,Day,Hour,Minute,Value (Times are PST for temperature in C)
2009,07,27,00,00,18.20
2009,07,27,00,01,18.20
2009,07,27,00,02,18.20
2009,07,27,00,03,18.10
2009,07,27,00,04,18.10
2009,07,27,00,05,18.10
2009,07,27,00,06,18.10
2009,07,27,00,07,18.10
2009,07,27,00,08,18.10
2009,07,27,00,09,17.90
2009,07,27,00,10,17.90
2009,07,27,00,11,17.90
2009,07,27,00,12,17.90
2009,07,27,00,13,17.90
2009,07,27,00,14,17.90
2009,07,27,00,15,17.90
2009,07,27,00,16,17.90
2009,07,27,00,17,17.90
2009,07,27,00,18,17.90
2009,07,27,00,19,17.90
2009,07,27,00,20,17.90
2009,07,27,00,21,17.80
2009,07,27,00,22,17.80
2009,07,27,00,23,17.80
2009,07,27,00,24,17.80
2009,07,27,00,25,17.80
2009,07,27,00,26,17.80
2009,07,27,00,27,17.70
2009,07,27,00,28,17.70
2009,07,27,00,29,17.70
2009,07,27,00,30,17.70
2009,07,27,00,31,17.70
2009,07,27,00,32,17.70
2009,07,27,00,33,17.70
2009,07,27,00,34,17.70
2009,07,27,00,35,17.70
2009,07,27,00,36,17.60
2009,07,27,00,37,17.60
2009,07,27,00,38,17.60
2009,07,27,00,39,17.60
2009,07,27,00,40,17.60
2009,07,27,00,41,17.50
2009,07,27,00,42,17.50
2009,07,27,00,43,17.50
2009,07,27,00,44,17.40
2009,07,27,00,45,17.40
2009,07,27,00,46,17.40
2009,07,27,00,47,17.40
2009,07,27,00,48,17.40
2009,07,27,00,49,17.30
2009,07,27,00,50,17.30
2009,07,27,00,51,17.30
2009,07,27,00,52,17.30
2009,07,27,00,53,17.30
2009,07,27,00,54,17.30
2009,07,27,00,55,17.30
2009,07,27,00,56,17.30
2009,07,27,00,57,17.30
2009,07,27,00,58,17.30
2009,07,27,00,59,17.30
2009,07,27,01,00,17.30
2009,07,27,01,01,17.30
2009,07,27,01,02,17.30
2009,07,27,01,03,17.30
2009,07,27,01,04,17.30
2009,07,27,01,05,17.30
2009,07,27,01,06,17.30
2009,07,27,01,07,17.30
2009,07,27,01,08,17.30
2009,07,27,01,09,17.20
2009,07,27,01,10,17.20
2009,07,27,01,11,17.20
2009,07,27,01,12,17.20
2009,07,27,01,13,17.20
2009,07,27,01,14,17.20
2009,07,27,01,15,17.20
2009,07,27,01,16,17.20
2009,07,27,01,17,17.20
2009,07,27,01,18,17.20
2009,07,27,01,19,17.20
2009,07,27,01,20,17.20
2009,07,27,01,21,17.20
2009,07,27,01,22,17.20
2009,07,27,01,23,17.20
2009,07,27,01,24,17.20
2009,07,27,01,25,17.20
2009,07,27,01,26,17.20
2009,07,27,01,27,17.30
2009,07,27,01,28,17.30
2009,07,27,01,29,17.30
2009,07,27,01,30,17.30
2009,07,27,01,31,17.30
2009,07,27,01,32,17.30
2009,07,27,01,33,17.30
2009,07,27,01,34,17.30
2009,07,27,01,35,17.30
2009,07,27,01,36,17.30
2009,07,27,01,37,17.30
2009,07,27,01,38,17.30
2009,07,27,01,39,17.30
2009,07,27,01,40,17.30
2009,07,27,01,41,17.30
2009,07,27,01,42,17.30
2009,07,27,01,43,17.30
2009,07,27,01,44,17.30
2009,07,27,01,45,17.30
2009,07,27,01,46,17.30
2009,07,27,01,47,17.30
2009,07,27,01,48,17.20
2009,07,27,01,49,17.20
2009,07,27,01,50,17.20
2009,07,27,01,51,17.20
2009,07,27,01,52,17.20
2009,07,27,01,53,17.20
2009,07,27,01,54,17.20
2009,07,27,01,55,17.20
2009,07,27,01,56,17.20
2009,07,27,01,57,17.20
2009,07,27,01,58,17.10
2009,07,27,01,59,17.10
2009,07,27,02,00,17.10
2009,07,27,02,01,17.10
2009,07,27,02,02,17.10
2009,07,27,02,03,17.00
2009,07,27,02,04,17.00
2009,07,27,02,05,17.00
2009,07,27,02,06,17.00
2009,07,27,02,07,17.00
2009,07,27,02,08,17.00
2009,07,27,02,09,16.90
2009,07,27,02,10,16.90
2009,07,27,02,11,16.90
2009,07,27,02,12,16.90
2009,07,27,02,13,16.90
2009,07,27,02,14,16.90
2009,07,27,02,15,16.90
2009,07,27,02,16,16.90
2009,07,27,02,17,16.80
2009,07,27,02,18,16.80
2009,07,27,02,19,16.80
2009,07,27,02,20,16.80
2009,07,27,02,21,16.80
2009,07,27,02,22,16.80
2009,07,27,02,23,16.80
2009,07,27,02,24,16.70
2009,07,27,02,25,16.70
2009,07,27,02,26,16.70
2009,07,27,02,27,16.70
2009,07,27,02,28,16.70
2009,07,27,02,29,16.70
2009,07,27,02,30,16.70
2009,07,27,02,31,16.70
2009,07,27,02,32,16.70
2009,07,27,02,33,16.70
2009,07,27,02,34,16.70
2009,07,27,02,35,16.70
2009,07,27,02,36,16.70
2009,07,27,02,37,16.70
2009,07,27,02,38,16.60
2009,07,27,02,39,16.60
2009,07,27,02,40,16.60
2009,07,27,02,41,16.60
2009,07,27,02,42,16.60
2009,07,27,02,43,16.60
2009,07,27,02,44,16.50
2009,07,27,02,45,16.40
2009,07,27,02,46,16.40
2009,07,27,02,47,16.40
2009,07,27,02,48,16.40
2009,07,27,02,49,16.40
2009,07,27,02,50,16.40
2009,07,27,02,51,16.40
2009,07,27,02,52,16.40
2009,07,27,02,53,16.40
2009,07,27,02,54,16.40
2009,07,27,02,55,16.40
2009,07,27,02,56,16.40
2009,07,27,02,57,16.40
2009,07,27,02,58,16.40
2009,07,27,02,59,16.40
2009,07,27,03,00,16.40
2009,07,27,03,01,16.40
2009,07,27,03,02,16.40
2009,07,27,03,03,16.40
2009,07,27,03,04,16.30
2009,07,27,03,05,16.30
2009,07,27,03,06,16.30
2009,07,27,03,07,16.30
2009,07,27,03,08,16.30
2009,07,27,03,09,16.30
2009,07,27,03,10,16.30
2009,07,27,03,11,16.30
2009,07,27,03,12,16.30
2009,07,27,03,13,16.30
2009,07,27,03,14,16.30
2009,07,27,03,15,16.20
2009,07,27,03,16,16.20
2009,07,27,03,17,16.20
2009,07,27,03,18,16.20
2009,07,27,03,19,16.20
2009,07,27,03,20,16.20
2009,07,27,03,21,16.20
2009,07,27,03,22,16.20
2009,07,27,03,23,16.10
2009,07,27,03,24,16.10
2009,07,27,03,25,16.10
2009,07,27,03,26,16.10
2009,07,27,03,27,16.10
2009,07,27,03,28,16.10
2009,07,27,03,29,16.10
2009,07,27,03,30,16.10
2009,07,27,03,31,16.10
2009,07,27,03,32,16.00
2009,07,27,03,33,15.90
2009,07,27,03,34,15.80
2009,07,27,03,35,15.80
2009,07,27,03,36,15.70
2009,07,27,03,37,15.60
2009,07,27,03,38,15.60
2009,07,27,03,39,15.50
2009,07,27,03,40,15.40
2009,07,27,03,41,15.40
2009,07,27,03,42,15.40
2009,07,27,03,43,15.30
2009,07,27,03,44,15.30
2009,07,27,03,45,15.30
2009,07,27,03,46,15.30
2009,07,27,03,47,15.30
2009,07,27,03,48,15.30
2009,07,27,03,49,15.30
2009,07,27,03,50,15.30
2009,07,27,03,51,15.30
2009,07,27,03,52,15.30
2009,07,27,03,53,15.30
2009,07,27,03,54,15.20
2009,07,27,03,55,15.20
2009,07,27,03,56,15.20
2009,07,27,03,57,15.20
2009,07,27,03,58,15.20
2009,07,27,03,59,15.20
2009,07,27,04,00,15.20
2009,07,27,04,01,15.20
2009,07,27,04,02,15.20
2009,07,27,04,03,15.20
2009,07,27,04,04,15.10
2009,07,27,04,05,15.10
2009,07,27,04,06,15.10
2009,07,27,04,07,15.10
2009,07,27,04,08,15.10
2009,07,27,04,09,15.10
2009,07,27,04,10,15.10
2009,07,27,04,11,15.10
2009,07,27,04,12,15.00
2009,07,27,04,13,15.00
2009,07,27,04,14,15.00
2009,07,27,04,15,15.00
2009,07,27,04,16,15.00
2009,07,27,04,17,15.00
2009,07,27,04,18,14.90
2009,07,27,04,19,14.90
2009,07,27,04,20,14.90
2009,07,27,04,21,14.90
2009,07,27,04,22,14.90
2009,07,27,04,23,14.90
2009,07,27,04,24,14.90
2009,07,27,04,25,14.90
2009,07,27,04,26,14.80
2009,07,27,04,27,14.80
2009,07,27,04,28,14.80
2009,07,27,04,29,14.80
2009,07,27,04,30,14.80
2009,07,27,04,31,14.80
2009,07,27,04,32,14.80
2009,07,27,04,33,14.80
2009,07,27,04,34,14.80
2009,07,27,04,35,14.80
2009,07,27,04,36,14.80
2009,07,27,04,37,14.80
2009,07,27,04,38,14.80
2009,07,27,04,39,14.80
2009,07,27,04,40,14.80
2009,07,27,04,41,14.80
2009,07,27,04,42,14.80
2009,07,27,04,43,14.80
2009,07,27,04,44,14.80
2009,07,27,04,45,14.80
2009,07,27,04,46,14.80
2009,07,27,04,47,14.80
2009,07,27,04,48,14.80
2009,07,27,04,49,14.80
2009,07,27,04,50,14.80
2009,07,27,04,51,14.80
2009,07,27,04,52,14.70
2009,07,27,04,53,14.70
2009,07,27,04,54,14.70
2009,07,27,04,55,14.70
2009,07,27,04,56,14.70
2009,07,27,04,57,14.70
2009,07,27,04,58,14.70
2009,07,27,04,59,14.70
2009,07,27,05,00,14.70
2009,07,27,05,01,14.70
2009,07,27,05,02,14.70
2009,07,27,05,03,14.70
2009,07,27,05,04,14.60
2009,07,27,05,05,14.60
2009,07,27,05,06,14.60
2009,07,27,05,07,14.60
2009,07,27,05,08,14.60
2009,07,27,05,09,14.60
2009,07,27,05,10,14.60
2009,07,27,05,11,14.60
2009,07,27,05,12,14.60
2009,07,27,05,13,14.60
2009,07,27,05,14,14.60
2009,07,27,05,15,14.60
2009,07,27,05,16,14.60
2009,07,27,05,17,14.60
2009,07,27,05,18,14.60
2009,07,27,05,19,14.60
2009,07,27,05,20,14.60
2009,07,27,05,21,14.60
2009,07,27,05,22,14.60
2009,07,27,05,23,14.60
2009,07,27,05,24,14.60
2009,07,27,05,25,14.60
2009,07,27,05,26,14.60
2009,07,27,05,27,14.60
2009,07,27,05,28,14.60
2009,07,27,05,29,14.60
2009,07,27,05,30,14.60
2009,07,27,05,31,14.60
2009,07,27,05,32,14.60
2009,07,27,05,33,14.60
2009,07,27,05,34,14.60
2009,07,27,05,35,14.60
2009,07,27,05,36,14.60
2009,07,27,05,37,14.60
2009,07,27,05,38,14.60
2009,07,27,05,39,14.60
2009,07,27,05,40,14.60
2009,07,27,05,41,14.60
2009,07,27,05,42,14.60
2009,07,27,05,43,14.70
2009,07,27,05,44,14.70
2009,07,27,05,45,14.70
2009,07,27,05,46,14.70
2009,07,27,05,47,14.70
2009,07,27,05,48,14.70
2009,07,27,05,49,14.60
2009,07,27,05,50,14.60
2009,07,27,05,51,14.60
2009,07,27,05,52,14.60
2009,07,27,05,53,14.60
2009,07,27,05,54,14.60
2009,07,27,05,55,14.60
2009,07,27,05,56,14.60
2009,07,27,05,57,14.50
2009,07,27,05,58,14.50
2009,07,27,05,59,14.60
2009,07,27,06,00,14.60
2009,07,27,06,01,14.60
2009,07,27,06,02,14.60
2009,07,27,06,03,14.60
2009,07,27,06,04,14.60
2009,07,27,06,05,14.60
2009,07,27,06,06,14.70
2009,07,27,06,07,14.70
2009,07,27,06,08,14.70
2009,07,27,06,09,14.70
2009,07,27,06,10,14.70
2009,07,27,06,11,14.70
2009,07,27,06,12,14.70
2009,07,27,06,13,14.70
2009,07,27,06,14,14.70
2009,07,27,06,15,14.70
2009,07,27,06,16,14.70
2009,07,27,06,17,14.70
2009,07,27,06,18,14.70
2009,07,27,06,19,14.70
2009,07,27,06,20,14.70
2009,07,27,06,21,14.70
2009,07,27,06,22,14.70
2009,07,27,06,23,14.80
2009,07,27,06,24,14.80
2009,07,27,06,25,14.80
2009,07,27,06,26,14.80
2009,07,27,06,27,14.80
2009,07,27,06,28,14.90
2009,07,27,06,29,14.90
2009,07,27,06,30,14.90
2009,07,27,06,31,15.00
2009,07,27,06,32,15.00
2009,07,27,06,33,15.00
2009,07,27,06,34,15.00
2009,07,27,06,35,15.10
2009,07,27,06,36,15.10
2009,07,27,06,37,15.10
2009,07,27,06,38,15.10
2009,07,27,06,39,15.20
2009,07,27,06,40,15.20
2009,07,27,06,41,15.20
2009,07,27,06,42,15.30
2009,07,27,06,43,15.30
2009,07,27,06,44,15.30
2009,07,27,06,45,15.30
2009,07,27,06,46,15.30
2009,07,27,06,47,15.30
2009,07,27,06,48,15.30
2009,07,27,06,49,15.30
2009,07,27,06,50,15.40
2009,07,27,06,51,15.40
2009,07,27,06,52,15.40
2009,07,27,06,53,15.50
2009,07,27,06,54,15.50
2009,07,27,06,55,15.60
2009,07,27,06,56,15.60
2009,07,27,06,57,15.70
2009,07,27,06,58,15.70
2009,07,27,06,59,15.80
2009,07,27,07,00,15.80
2009,07,27,07,01,15.80
2009,07,27,07,02,15.90
2009,07,27,07,03,15.90
2009,07,27,07,04,16.10
2009,07,27,07,05,16.10
2009,07,27,07,06,16.10
2009,07,27,07,07,16.20
2009,07,27,07,08,16.30
2009,07,27,07,09,16.40
2009,07,27,07,10,16.50
2009,07,27,07,11,16.70
2009,07,27,07,12,16.70
2009,07,27,07,13,16.80
2009,07,27,07,14,16.90
2009,07,27,07,15,17.00
2009,07,27,07,16,17.10
2009,07,27,07,17,17.20
2009,07,27,07,18,17.30
2009,07,27,07,19,17.30
2009,07,27,07,20,17.40
2009,07,27,07,21,17.50
2009,07,27,07,22,17.60
2009,07,27,07,23,17.70
2009,07,27,07,24,17.80
2009,07,27,07,25,17.90
2009,07,27,07,26,17.90
2009,07,27,07,27,18.00
2009,07,27,07,28,18.10
2009,07,27,07,29,18.20
2009,07,27,07,30,18.20
2009,07,27,07,31,18.20
2009,07,27,07,32,18.30
2009,07,27,07,33,18.40
2009,07,27,07,34,18.50
2009,07,27,07,35,18.50
2009,07,27,07,36,18.60
2009,07,27,07,37,18.70
2009,07,27,07,38,18.70
2009,07,27,07,39,18.80
2009,07,27,07,40,18.80
2009,07,27,07,41,18.90
2009,07,27,07,42,18.90
2009,07,27,07,43,18.90
2009,07,27,07,44,18.90
2009,07,27,07,45,18.90
2009,07,27,07,46,19.00
2009,07,27,07,47,19.10
2009,07,27,07,48,19.10
2009,07,27,07,49,19.10
2009,07,27,07,50,19.10
2009,07,27,07,51,19.10
2009,07,27,07,52,19.10
2009,07,27,07,53,19.10
2009,07,27,07,54,19.10
2009,07,27,07,55,19.20
2009,07,27,07,56,19.20
2009,07,27,07,57,19.20
2009,07,27,07,58,19.20
2009,07,27,07,59,19.20
2009,07,27,08,00,19.20
2009,07,27,08,01,19.20
2009,07,27,08,02,19.30
2009,07,27,08,03,19.30
2009,07,27,08,04,19.30
2009,07,27,08,05,19.40
2009,07,27,08,06,19.40
2009,07,27,08,07,19.50
2009,07,27,08,08,19.50
2009,07,27,08,09,19.50
2009,07,27,08,10,19.50
2009,07,27,08,11,19.60
2009,07,27,08,12,19.60
2009,07,27,08,13,19.60
2009,07,27,08,14,19.70
2009,07,27,08,15,19.70
2009,07,27,08,16,19.80
2009,07,27,08,17,19.90
2009,07,27,08,18,19.90
2009,07,27,08,19,20.10
2009,07,27,08,20,20.10
2009,07,27,08,21,20.20
2009,07,27,08,22,20.20
2009,07,27,08,23,20.30
2009,07,27,08,24,20.30
2009,07,27,08,25,20.30
2009,07,27,08,26,20.30
2009,07,27,08,27,20.30
2009,07,27,08,28,20.40
2009,07,27,08,29,20.40
2009,07,27,08,30,20.40
2009,07,27,08,31,20.50
2009,07,27,08,32,20.50
2009,07,27,08,33,20.50
2009,07,27,08,34,20.60
2009,07,27,08,35,20.60
2009,07,27,08,36,20.70
2009,07,27,08,37,20.70
2009,07,27,08,38,20.80
2009,07,27,08,39,20.80
2009,07,27,08,40,20.80
2009,07,27,08,41,20.90
2009,07,27,08,42,20.80
2009,07,27,08,43,20.80
2009,07,27,08,44,20.80
2009,07,27,08,45,20.80
2009,07,27,08,46,20.80
2009,07,27,08,47,20.80
2009,07,27,08,48,20.80
2009,07,27,08,49,20.70
2009,07,27,08,50,20.70
2009,07,27,08,51,20.70
2009,07,27,08,52,20.80
2009,07,27,08,53,20.80
2009,07,27,08,54,20.80
2009,07,27,08,55,20.80
2009,07,27,08,56,20.80
2009,07,27,08,57,20.80
2009,07,27,08,58,20.80
2009,07,27,08,59,20.80
2009,07,27,09,00,20.80
2009,07,27,09,01,20.80
2009,07,27,09,02,20.80
2009,07,27,09,03,20.80
2009,07,27,09,04,20.80
2009,07,27,09,05,20.80
2009,07,27,09,06,20.80
2009,07,27,09,07,20.80
2009,07,27,09,08,20.90
2009,07,27,09,09,20.90
2009,07,27,09,10,21.00
2009,07,27,09,11,21.00
2009,07,27,09,12,21.00
2009,07,27,09,13,21.00
2009,07,27,09,14,21.10
2009,07,27,09,15,21.10
2009,07,27,09,16,21.10
2009,07,27,09,17,21.20
2009,07,27,09,18,21.20
2009,07,27,09,19,21.10
2009,07,27,09,20,21.00
2009,07,27,09,21,21.00
2009,07,27,09,22,20.90
2009,07,27,09,23,20.80
2009,07,27,09,24,20.80
2009,07,27,09,25,20.80
2009,07,27,09,26,20.80
2009,07,27,09,27,20.80
2009,07,27,09,28,20.70
2009,07,27,09,29,20.70
2009,07,27,09,30,20.70
2009,07,27,09,31,20.70
2009,07,27,09,32,20.70
2009,07,27,09,33,20.70
2009,07,27,09,34,20.70
2009,07,27,09,35,20.60
2009,07,27,09,36,20.60
2009,07,27,09,37,20.60
2009,07,27,09,38,20.50
2009,07,27,09,39,20.50
2009,07,27,09,40,20.50
2009,07,27,09,41,20.40
2009,07,27,09,42,20.50
2009,07,27,09,43,20.50
2009,07,27,09,44,20.60
2009,07,27,09,45,20.60
2009,07,27,09,46,20.70
2009,07,27,09,47,20.70
2009,07,27,09,48,20.80
2009,07,27,09,49,20.80
2009,07,27,09,50,20.80
2009,07,27,09,51,20.70
2009,07,27,09,52,20.70
2009,07,27,09,53,20.70
2009,07,27,09,54,20.70
2009,07,27,09,55,20.70
2009,07,27,09,56,20.70
2009,07,27,09,57,20.80
2009,07,27,09,58,20.80
2009,07,27,09,59,20.90
2009,07,27,10,00,21.00
2009,07,27,10,01,21.00
2009,07,27,10,02,21.00
2009,07,27,10,03,21.00
2009,07,27,10,04,21.00
2009,07,27,10,05,21.00
2009,07,27,10,06,21.00
2009,07,27,10,07,21.10
2009,07,27,10,08,21.10
2009,07,27,10,09,21.10
2009,07,27,10,10,21.00
2009,07,27,10,11,21.00
2009,07,27,10,12,20.90
2009,07,27,10,13,20.80
2009,07,27,10,14,20.70
2009,07,27,10,15,20.70
2009,07,27,10,16,20.80
2009,07,27,10,17,20.80
2009,07,27,10,18,20.80
2009,07,27,10,19,20.90
2009,07,27,10,20,21.00
2009,07,27,10,21,21.10
2009,07,27,10,22,21.20
2009,07,27,10,23,21.30
2009,07,27,10,24,21.30
2009,07,27,10,25,21.20
2009,07,27,10,26,21.20
2009,07,27,10,27,21.30
2009,07,27,10,28,21.30
2009,07,27,10,29,21.30
2009,07,27,10,30,21.30
2009,07,27,10,31,21.30
2009,07,27,10,32,21.40
2009,07,27,10,33,21.40
2009,07,27,10,34,21.40
2009,07,27,10,35,21.60
2009,07,27,10,36,21.60
2009,07,27,10,37,21.60
2009,07,27,10,38,21.60
2009,07,27,10,39,21.80
2009,07,27,10,40,21.80
2009,07,27,10,41,21.90
2009,07,27,10,42,21.90
2009,07,27,10,43,22.00
2009,07,27,10,44,22.10
2009,07,27,10,45,22.20
2009,07,27,10,46,22.30
2009,07,27,10,47,22.30
2009,07,27,10,48,22.50
2009,07,27,10,49,22.60
2009,07,27,10,50,22.70
2009,07,27,10,51,22.70
2009,07,27,10,52,22.80
2009,07,27,10,53,22.80
2009,07,27,10,54,22.90
2009,07,27,10,55,22.90
2009,07,27,10,56,22.90
2009,07,27,10,57,23.00
2009,07,27,10,58,23.10
2009,07,27,10,59,23.10
2009,07,27,11,00,23.20
2009,07,27,11,01,23.30
2009,07,27,11,02,23.30
2009,07,27,11,03,23.50
2009,07,27,11,04,23.60
2009,07,27,11,05,23.60
2009,07,27,11,06,23.60
2009,07,27,11,07,23.60
2009,07,27,11,08,23.40
2009,07,27,11,09,23.40
2009,07,27,11,10,23.40
2009,07,27,11,11,23.30
2009,07,27,11,12,23.30
2009,07,27,11,13,23.30
2009,07,27,11,14,23.30
2009,07,27,11,15,23.40
2009,07,27,11,16,23.40
2009,07,27,11,17,23.40
2009,07,27,11,18,23.50
2009,07,27,11,19,23.70
2009,07,27,11,20,23.80
2009,07,27,11,21,23.80
2009,07,27,11,22,23.90
2009,07,27,11,23,23.90
2009,07,27,11,24,23.80
2009,07,27,11,25,23.80
2009,07,27,11,26,23.70
2009,07,27,11,27,23.50
2009,07,27,11,28,23.30
2009,07,27,11,29,23.30
2009,07,27,11,30,23.30
2009,07,27,11,31,23.30
2009,07,27,11,32,23.30
2009,07,27,11,33,23.30
2009,07,27,11,34,23.30
2009,07,27,11,35,23.30
2009,07,27,11,36,23.10
2009,07,27,11,37,22.90
2009,07,27,11,38,22.70
2009,07,27,11,39,22.50
2009,07,27,11,40,22.30
2009,07,27,11,41,22.20
2009,07,27,11,42,22.00
2009,07,27,11,43,21.90
2009,07,27,11,44,21.80
2009,07,27,11,45,21.70
2009,07,27,11,46,21.60
2009,07,27,11,47,21.60
2009,07,27,11,48,21.60
2009,07,27,11,49,21.60
2009,07,27,11,50,21.60
2009,07,27,11,51,21.60
2009,07,27,11,52,21.70
2009,07,27,11,53,21.80
2009,07,27,11,54,21.80
2009,07,27,11,55,21.80
2009,07,27,11,56,21.60
2009,07,27,11,57,21.60
2009,07,27,11,58,21.50
2009,07,27,11,59,21.40
2009,07,27,12,00,21.40
2009,07,27,12,01,21.40
2009,07,27,12,02,21.50
2009,07,27,12,03,21.60
2009,07,27,12,04,21.60
2009,07,27,12,05,21.70
2009,07,27,12,06,21.80
2009,07,27,12,07,21.80
2009,07,27,12,08,21.70
2009,07,27,12,09,21.70
2009,07,27,12,10,21.70
2009,07,27,12,11,21.80
2009,07,27,12,12,21.80
2009,07,27,12,13,21.80
2009,07,27,12,14,21.80
2009,07,27,12,15,21.90
2009,07,27,12,16,22.00
2009,07,27,12,17,22.00
2009,07,27,12,18,22.00
2009,07,27,12,19,22.10
2009,07,27,12,20,22.20
2009,07,27,12,21,22.20
2009,07,27,12,22,22.20
2009,07,27,12,23,22.30
2009,07,27,12,24,22.30
2009,07,27,12,25,22.40
2009,07,27,12,26,22.50
2009,07,27,12,27,22.50
2009,07,27,12,28,22.60
2009,07,27,12,29,22.70
2009,07,27,12,30,22.80
2009,07,27,12,31,23.00
2009,07,27,12,32,23.20
2009,07,27,12,33,23.00
2009,07,27,12,34,22.90
2009,07,27,12,35,22.90
2009,07,27,12,36,22.90
2009,07,27,12,37,22.90
2009,07,27,12,38,22.90
2009,07,27,12,39,22.80
2009,07,27,12,40,22.60
2009,07,27,12,41,22.60
2009,07,27,12,42,22.40
2009,07,27,12,43,22.30
2009,07,27,12,44,22.20
2009,07,27,12,45,22.20
2009,07,27,12,46,22.10
2009,07,27,12,47,22.10
2009,07,27,12,48,22.10
2009,07,27,12,49,22.10
2009,07,27,12,50,22.10
2009,07,27,12,51,22.10
2009,07,27,12,52,22.20
2009,07,27,12,53,22.20
2009,07,27,12,54,22.30
2009,07,27,12,55,22.50
2009,07,27,12,56,22.60
2009,07,27,12,57,22.60
2009,07,27,12,58,22.70
2009,07,27,12,59,22.70
2009,07,27,13,00,22.80
2009,07,27,13,01,22.90
2009,07,27,13,02,22.90
2009,07,27,13,03,22.90
2009,07,27,13,04,22.90
2009,07,27,13,05,22.90
2009,07,27,13,06,22.90
2009,07,27,13,07,22.90
2009,07,27,13,08,22.90
2009,07,27,13,09,22.90
2009,07,27,13,10,22.70
2009,07,27,13,11,22.70
2009,07,27,13,12,22.60
2009,07,27,13,13,22.70
2009,07,27,13,14,22.80
2009,07,27,13,15,22.90
2009,07,27,13,16,22.90
2009,07,27,13,17,22.90
2009,07,27,13,18,23.00
2009,07,27,13,19,23.10
2009,07,27,13,20,23.20
2009,07,27,13,21,23.30
2009,07,27,13,22,23.30
2009,07,27,13,23,23.30
2009,07,27,13,24,23.40
2009,07,27,13,25,23.50
2009,07,27,13,26,23.60
2009,07,27,13,27,23.80
2009,07,27,13,28,23.90
2009,07,27,13,29,24.00
2009,07,27,13,30,24.10
2009,07,27,13,31,24.20
2009,07,27,13,32,24.40
2009,07,27,13,33,24.30
2009,07,27,13,34,24.30
2009,07,27,13,35,24.10
2009,07,27,13,36,24.00
2009,07,27,13,37,23.90
2009,07,27,13,38,23.90
2009,07,27,13,39,23.80
2009,07,27,13,40,23.70
2009,07,27,13,41,23.70
2009,07,27,13,42,23.60
2009,07,27,13,43,23.50
2009,07,27,13,44,23.50
2009,07,27,13,45,23.40
2009,07,27,13,46,23.50
2009,07,27,13,47,23.60
2009,07,27,13,48,23.70
2009,07,27,13,49,23.70
2009,07,27,13,50,23.70
2009,07,27,13,51,23.70
2009,07,27,13,52,23.70
2009,07,27,13,53,23.70
2009,07,27,13,54,23.70
2009,07,27,13,55,23.70
2009,07,27,13,56,23.80
2009,07,27,13,57,23.80
2009,07,27,13,58,23.80
2009,07,27,13,59,23.90
2009,07,27,14,00,23.90
2009,07,27,14,01,23.90
2009,07,27,14,02,23.90
2009,07,27,14,03,23.90
2009,07,27,14,04,23.80
2009,07,27,14,05,23.90
2009,07,27,14,06,23.90
2009,07,27,14,07,23.90
2009,07,27,14,08,23.80
2009,07,27,14,09,23.80
2009,07,27,14,10,23.90
2009,07,27,14,11,24.00
2009,07,27,14,12,24.10
2009,07,27,14,13,24.20
2009,07,27,14,14,24.30
2009,07,27,14,15,24.40
2009,07,27,14,16,24.50
2009,07,27,14,17,24.70
2009,07,27,14,18,24.80
2009,07,27,14,19,24.90
2009,07,27,14,20,24.90
2009,07,27,14,21,25.00
2009,07,27,14,22,25.20
2009,07,27,14,23,25.30
2009,07,27,14,24,25.20
2009,07,27,14,25,25.20
2009,07,27,14,26,25.30
2009,07,27,14,27,25.40
2009,07,27,14,28,25.30
2009,07,27,14,29,25.30
2009,07,27,14,30,25.30
2009,07,27,14,31,25.20
2009,07,27,14,32,25.20
2009,07,27,14,33,25.20
2009,07,27,14,34,25.20
2009,07,27,14,35,25.10
2009,07,27,14,36,25.10
2009,07,27,14,37,25.10
2009,07,27,14,38,25.10
2009,07,27,14,39,25.10
2009,07,27,14,40,25.00
2009,07,27,14,41,25.00
2009,07,27,14,42,24.90
2009,07,27,14,43,24.90
2009,07,27,14,44,24.90
2009,07,27,14,45,24.90
2009,07,27,14,46,24.80
2009,07,27,14,47,24.90
2009,07,27,14,48,25.10
2009,07,27,14,49,25.10
2009,07,27,14,50,25.00
2009,07,27,14,51,25.10
2009,07,27,14,52,25.10
2009,07,27,14,53,25.10
2009,07,27,14,54,25.00
2009,07,27,14,55,24.90
2009,07,27,14,56,25.00
2009,07,27,14,57,25.10
2009,07,27,14,58,25.10
2009,07,27,14,59,25.10
2009,07,27,15,00,25.20
2009,07,27,15,01,25.20
2009,07,27,15,02,25.20
2009,07,27,15,03,25.20
2009,07,27,15,04,25.20
2009,07,27,15,05,25.20
2009,07,27,15,06,25.30
2009,07,27,15,07,25.40
2009,07,27,15,08,25.50
2009,07,27,15,09,25.50
2009,07,27,15,10,25.50
2009,07,27,15,11,25.60
2009,07,27,15,12,25.50
2009,07,27,15,13,25.50
2009,07,27,15,14,25.40
2009,07,27,15,15,25.40
2009,07,27,15,16,25.40
2009,07,27,15,17,25.50
2009,07,27,15,18,25.60
2009,07,27,15,19,25.70
2009,07,27,15,20,25.70
2009,07,27,15,21,25.80
2009,07,27,15,22,25.80
2009,07,27,15,23,25.90
2009,07,27,15,24,25.80
2009,07,27,15,25,25.90
2009,07,27,15,26,25.90
2009,07,27,15,27,25.90
2009,07,27,15,28,25.90
2009,07,27,15,29,25.90
2009,07,27,15,30,26.00
2009,07,27,15,31,26.00
2009,07,27,15,32,26.00
2009,07,27,15,33,26.10
2009,07,27,15,34,26.20
2009,07,27,15,35,26.20
2009,07,27,15,36,26.30
2009,07,27,15,37,26.30
2009,07,27,15,38,26.40
2009,07,27,15,39,26.40
2009,07,27,15,40,26.50
2009,07,27,15,41,26.60
2009,07,27,15,42,26.60
2009,07,27,15,43,26.50
2009,07,27,15,44,26.40
2009,07,27,15,45,26.40
2009,07,27,15,46,26.40
2009,07,27,15,47,26.30
2009,07,27,15,48,26.30
2009,07,27,15,49,26.30
2009,07,27,15,50,26.40
2009,07,27,15,51,26.40
2009,07,27,15,52,26.40
2009,07,27,15,53,26.50
2009,07,27,15,54,26.60
2009,07,27,15,55,26.60
2009,07,27,15,56,26.60
2009,07,27,15,57,26.60
2009,07,27,15,58,26.60
2009,07,27,15,59,26.60
2009,07,27,16,00,26.70
2009,07,27,16,01,26.80
2009,07,27,16,02,26.80
2009,07,27,16,03,26.80
2009,07,27,16,04,26.80
2009,07,27,16,05,26.70
2009,07,27,16,06,26.70
2009,07,27,16,07,26.60
2009,07,27,16,08,26.70
2009,07,27,16,09,26.70
2009,07,27,16,10,26.70
2009,07,27,16,11,26.70
2009,07,27,16,12,26.70
2009,07,27,16,13,26.80
2009,07,27,16,14,26.90
2009,07,27,16,15,27.00
2009,07,27,16,16,27.20
2009,07,27,16,17,27.30
2009,07,27,16,18,27.40
2009,07,27,16,19,27.60
2009,07,27,16,20,27.60
2009,07,27,16,21,27.50
2009,07,27,16,22,27.30
2009,07,27,16,23,27.20
2009,07,27,16,24,27.00
2009,07,27,16,25,26.90
2009,07,27,16,26,26.80
2009,07,27,16,27,26.70
2009,07,27,16,28,26.70
2009,07,27,16,29,26.60
2009,07,27,16,30,26.60
2009,07,27,16,31,26.60
2009,07,27,16,32,26.60
2009,07,27,16,33,26.70
2009,07,27,16,34,26.80
2009,07,27,16,35,27.00
2009,07,27,16,36,27.10
2009,07,27,16,37,27.20
2009,07,27,16,38,27.30
2009,07,27,16,39,27.40
2009,07,27,16,40,27.50
2009,07,27,16,41,27.60
2009,07,27,16,42,27.70
2009,07,27,16,43,27.80
2009,07,27,16,44,27.90
2009,07,27,16,45,28.00
2009,07,27,16,46,28.00
2009,07,27,16,47,28.10
2009,07,27,16,48,28.10
2009,07,27,16,49,28.10
2009,07,27,16,50,28.10
2009,07,27,16,51,28.10
2009,07,27,16,52,28.10
2009,07,27,16,53,28.10
2009,07,27,16,54,28.00
2009,07,27,16,55,28.00
2009,07,27,16,56,27.90
2009,07,27,16,57,27.90
2009,07,27,16,58,27.90
2009,07,27,16,59,28.00
2009,07,27,17,00,28.00
2009,07,27,17,01,28.00
2009,07,27,17,02,28.00
2009,07,27,17,03,28.00
2009,07,27,17,04,27.90
2009,07,27,17,05,27.90
2009,07,27,17,06,27.90
2009,07,27,17,07,27.90
2009,07,27,17,08,27.90
2009,07,27,17,09,28.00
2009,07,27,17,10,28.00
2009,07,27,17,11,27.90
2009,07,27,17,12,27.90
2009,07,27,17,13,27.90
2009,07,27,17,14,27.80
2009,07,27,17,15,27.80
2009,07,27,17,16,27.80
2009,07,27,17,17,27.70
2009,07,27,17,18,27.70
2009,07,27,17,19,27.70